STARLINK-36413, 67338

Orbit data source: Space-Track

STARLINK-36413, 67338 is a payload satellite owned by SpaceX/Seattle (US) in LEO that was launched on Fri, 09 Jan 2026 UTC via an FALCON 9 launch vehicle from the Air Force Eastern Test Range (AFETR). Payload-class satellites include a variety of spacecraft equipped with specific instruments for various scientific and technological missions. These include communications satellites like Starlink; space stations such as the ISS; scientific satellites like the Hubble; Earth observation satellites from companies like Planet Labs, Umbra, and HawkEye 360; GPS; miniature CubeSats for education and research; and military/defense satellites.

Loading next visibility...
Identifier
67338, 2026-003E
Orbit
LEO
Country
Flag of USUS
Related business
Manufacturer
SpaceX/Seattle
Mission
Operational Commercial Communications
Bus & Motor
STARLINK V2MO, Unknown motor
Mass
575 kg wet, ~530 kg dry
Launch date (UTC)
2026-01-09 (5 months ago)
Launch vehicle
FALCON 9
Launch site
Air Force Eastern Test Range (AFETR)
Object type
Payload
Rocket body
Debris
Shape & HBR
Box + 2 Pan, 17.7 m
Radar Cross Section
36.964 m², Large (>1 m²)

Expand to show TLE details & history
Last TLE update: 1 day ago

TLE from 1 day ago
0 STARLINK-36413
1 67338U 26003E   26170.97393537  .00020755  00000-0  76113-3 0  9990
2 67338  43.0026   9.7139 0001031 291.2109  68.8632 15.27601696 24464
Epoch: 2026-06-19T23:22Z
TLE epoch observation values (Epoch: 2026-06-19T23:22:28.015Z)
Latitude
-0.00007°
Longitude
110.90187°
Altitude
482.505 km
Speed
7.626 km/s
True Right ascension
00h 38m 51s
True Declination
0° 00' 00"
Sunlit
Object was in daylight at epoch
Visualization orbit readout
Latitude
Unknown
Longitude
Unknown
Altitude
Unknown
Speed
Unknown
Apparent Right ascension
Unknown
Apparent Declination
Unknown
Sunlit
N/A
Visualization observer readout
Local Sidereal Time
10:19:47
Azimuth
Unknown
Elevation
Unknown
Doppler factor
Unknown
Orbital elements
Apogee altitude
485.636 km
Perigee altitude
484.221 km
Semi-major axis
6,863.066 km
Eccentricity
0.0001
Inclination
43.0026°
RAAN
9.7139°
Arg. of periapsis
291.2109°
True anomaly
68.87422°
Mean anomaly
68.8632°
Eccentric anomaly
68.86871°
Mean motion
3.81738 °/min
Orbital period
94.31 mins
BSTAR
0.00076113
Loading maneuver chart data...
Computing Atmospheric mass density...
Loading historical data...
Loading historical data...
Loading historical data...
Loading historical data...
Loading historical data...
Loading historical data...
Loading historical data...

Documentation

Showing up to 5 results
|